This is the latest recevied weather packets stored in our database for station/object W4SNA-2. If no packets are shown the sender has not sent any weather packets the latest 10 day(s).
| Time | Temp. | Humidity | Pressure | Rain* | Wind** | Luminosity | Snow |
|---|---|---|---|---|---|---|---|
| 1777748832 | 12.78° C | 51% | 1013.3 hPa | 0 mm | - | - | - |
| 1777748532 | 12.78° C | 52% | 1013.2 hPa | 0 mm | - | - | - |
| 1777748232 | 12.78° C | 50% | 1013.2 hPa | 0 mm | - | - | - |
| 1777747932 | 12.78° C | 50% | 1013.3 hPa | 0 mm | - | - | - |
| 1777747632 | 12.78° C | 47% | 1013.4 hPa | 0 mm | - | - | - |
| 1777747332 | 12.78° C | 49% | 1013.4 hPa | 0 mm | - | - | - |
| 1777747032 | 12.22° C | 50% | 1013.4 hPa | 0 mm | - | - | - |
| 1777746732 | 12.22° C | 50% | 1013.5 hPa | 0 mm | - | - | - |
| 1777746432 | 12.22° C | 53% | 1013.5 hPa | 0 mm | - | - | - |
| 1777746132 | 12.22° C | 55% | 1013.6 hPa | 0 mm | - | - | - |
| 1777745833 | 11.67° C | 53% | 1013.6 hPa | 0 mm | - | - | - |
| 1777745532 | 12.22° C | 50% | 1013.7 hPa | 0 mm | - | - | - |
| 1777744431 | 11.67° C | 57% | 1014 hPa | 0 mm | - | - | - |
| 1777744128 | 11.67° C | 54% | 1014.1 hPa | 0 mm | - | - | - |
| 1777743828 | 11.11° C | 55% | 1014 hPa | 0 mm | - | - | - |
| 1777743528 | 10.56° C | 57% | 1014.1 hPa | 0 mm | - | - | - |
| 1777743228 | 10.56° C | 56% | 1014 hPa | 0 mm | - | - | - |
| 1777742928 | 10.56° C | 55% | 1014.1 hPa | 0 mm | - | - | - |
| 1777742628 | 10.56° C | 56% | 1014.2 hPa | 0 mm | - | - | - |
| 1777742328 | 10.56° C | 56% | 1014.2 hPa | 0 mm | - | - | - |
| 1777742028 | 10.56° C | 57% | 1014.4 hPa | 0 mm | - | - | - |
| 1777741728 | 10° C | 58% | 1014.4 hPa | 0 mm | - | - | - |
| 1777741428 | 10° C | 58% | 1014.6 hPa | 0 mm | - | - | - |
| 1777741128 | 10° C | 59% | 1014.6 hPa | 0 mm | - | - | - |
| 1777740830 | 9.44° C | 62% | 1014.7 hPa | 0 mm | - | - | - |
* Rain latest hour (hover to see other rain measurements)
** Current wind speed in m/s (hover to see current wind gust speed)